Погода в Ренне

Франция     48°06′30″N   1°41′03″W
темп.,
°C
ветер,
м/с
пор.,
м/с
влажн.,
%
обл.,
%
осадки,
мм/ч
давл.,
гПа
погр.,
м
19 января, ср
ср1901:00+2с22946 0.0 103214
04:00+2сз22944 0.0 103110
07:00+3сз2495100 0.0 1030102
10:00+5з248777 0.0 1031147
13:00+7зюз2377100 0.0 1030393
16:00+9з3475100 0.0 1029517
19:00+6зюз2393100 0.1 102996
22:00+7зсз259690 0.3 1030135
20 января, чт
чт2001:00+7с51091100 0.4 1032487
04:00+4с411905 0.0 1033278
07:00+2с39945 0.0 1034189
10:00+3с498937 0.0 1035256
13:00+7ссв576887 0.0 10361252
16:00+7св58655 0.0 10351236
19:00+2ссв411825 0.0 1036270
22:00+1ссв38875 0.0 1038170
21 января, пт
пт2101:000ссв37865 0.0 1038126
04:000ссв37905 0.0 1038111
07:00−1ссв35915 0.0 103880
10:00+1ссв268219 0.0 1039170
13:00+6св456210 0.0 10391026
16:00+6ссв44647 0.0 1038977
19:00+1с36855 0.0 103992
22:00+1ссв23880 0.0 103931
22 января, сб
сб2201:000ссв22880 0.0 103922
04:00−1ссв22901 0.0 103914
07:000ссв22930 0.0 103926
10:00+1ссв12890 0.0 103981
13:00+7ссв23720 0.0 1039433
16:00+8ссв34710 0.0 1037558
19:00+3ссв33910 0.0 103738
22:00+2ссв33930 0.0 103732
23 января, вс
вс2301:00+1ссв22940 0.0 103723
04:00+1ссв33930 0.0 103632
07:00+1ссв33931 0.0 103546
10:00+2ссв25920 0.0 1036125
13:00+7св35760 0.0 1034490
16:00+8всв45732 0.0 1034663
19:00+2всв379337 0.0 1035156
22:00+4всв377660 0.0 1035236